Regional Weather Roundup
Issued by NWS

Home | Current Version | Previous Version | Graphics & Text | Print | Product List | Glossary On
Versions: 1 2 3 4 5 6 7 8 9 10 11 12 13 14 15 16 17 18 19 20 21 22 23 24 25 26 27 28 29 30 31 32 33 34 35 36 37 38 39 40 41 42 43 44 45 46 47 48 49 50
966
ASUS45 KCYS 272110
RWRWY

WYOMING REGIONAL WEATHER ROUNDUP
NATIONAL WEATHER SERVICE CHEYENNE WY
300 PM MDT THU JUL 27 2017

NOTE:  "FAIR" INDICATES FEW OR NO CLOUDS BELOW 12,000 FEET
WITH NO SIGNIFICANT WEATHER AND/OR OBSTRUCTIONS TO VISIBILITY.

WYZ001-272200-
YELLOWSTONE NATIONAL PARK

CITY           SKY/WX    TMP DP  RH WIND       PRES   REMARKS
LK YELLOWSTONE   N/A     68  48  48 CALM      30.35F
W YELLOWSTONE  NOT AVBL

$$
WYZ002>013-054>058-071-098>099-272200-
NORTHERN WYOMING

CITY           SKY/WX    TMP DP  RH WIND       PRES   REMARKS
JACKSON        LGT RAIN  64  54  68 NW3       30.27F
CODY           FAIR      85  45  24 W9        30.10F HAZE
GREYBULL       FAIR      91  40  16 SW6       30.00F
WORLAND        FAIR      89  45  21 CALM      30.02F
SHERIDAN       FAIR      88  53  30 VRB5      30.03F
BUFFALO        FAIR      85  53  33 N9        30.10F
GILLETTE       FAIR      85  56  37 N18       30.01S
HULETT         TSTM      63  61  94 E24G32    30.08R
NEWCASTLE      FAIR      81  55  41 E23G33    30.06F

$$
WYZ014>020-022>026-101>103-272200-
CENTRAL WYOMING

CITY           SKY/WX    TMP DP  RH WIND       PRES   REMARKS
BIG PINEY      FAIR      76  46  34 E3        30.29F
PINEDALE       FAIR      75  41  29 W3        30.30F
DUBOIS         FAIR      73  41  31 N12G20    30.28F
LANDER         FAIR      84  45  25 E6        30.13F
RIVERTON       PTSUNNY   86  45  23 E9        30.12F
CASPER         FAIR      83  52  34 W14       30.12F
DOUGLAS        FAIR      85  56  37 SE8G18    30.10F

$$
WYZ021-027>030-104>119-272200-
SOUTHERN WYOMING

CITY           SKY/WX    TMP DP  RH WIND       PRES   REMARKS
EVANSTON       FAIR      77  46  33 W16G24    30.31F
KEMMERER         N/A     77  43  29 SW13      30.31F
FORT BRIDGER   MOCLDY    85  39  19 W18G30    30.32F
ROCK SPRINGS   FAIR      82  40  22 SW12G21   30.26F
RAWLINS        FAIR      82  43  25 W13G23    30.25F
SARATOGA       MOCLDY    82  43  24 W10G18    30.28F
LARAMIE        FAIR      79  50  36 VRB7      30.28F
CHEYENNE       FAIR      80  54  40 S15G24    30.21F
TORRINGTON     FAIR      87  63  44 E17G23    30.05F
PINE BLUFFS    FAIR      86  50  28 CALM      30.15F

$$




USA.gov is the U.S. government's official web portal to all federal, state and local government web resources and services.